Muscle Shoals, AL

3:11 PM CST on November 22, 2019 (GMT -0600)
Northwest Alabama Regional

Weather History for KMSL - October, 2019

Change the Weather History Date:

Sunday, October 20, 2019

  Actual Average Record
Temperature  
Mean Temperature 70 °F 61 °F  
Max Temperature 80 °F 73 °F 89 °F (1911)
Min Temperature 60 °F 48 °F 28 °F (1917)
Degree Days  
Heating Degree Days 0 6  
Month to date heating degree days 57 75  
Since 1 July heating degree days 57 90  
Cooling Degree Days 5 1  
Month to date cooling degree days 135 50  
Year to date cooling degree days 2493 1852  
Growing Degree Days 20 (Base 50)    
Moisture  
Dew Point 58 °F    
Average Humidity 71    
Maximum Humidity 96    
Minimum Humidity 45    
Precipitation  
Precipitation 0.00 in 0.11 in 4.16 in (1918)
Month to date precipitation 1.41 2.11  
Year to date precipitation 47.93 41.54  
Snow  
Snow 0.00 in - - ()
Month to date snowfall 0.0  
Since 1 July snowfall 0.0  
Since 1 September snowfall 0.0  
Snow Depth 0.00 in    
Sea Level Pressure  
Sea Level Pressure 29.89 in    
Wind  
Wind Speed 4 mph (South)    
Max Wind Speed 9 mph    
Max Gust Speed 13 mph    
Visibility 9 miles    
Events      
T = Trace of Precipitation, MM = Missing Value Source: NWS Daily Summary

Daily Weather History Graph

Daily Weather History Graph

Search for Another Location

Airport or City:

Astronomy

Oct. 20, 2019 Rise Set
Actual Time 7:00 AM CDT 6:09 PM CDT
Civil Twilight 6:34 AM CDT 6:35 PM CDT
Nautical Twilight 6:05 AM CDT 7:04 PM CDT
Astronomical Twilight 5:35 AM CDT 7:33 PM CDT
Moon 11:27 PM CDT (10/20) 1:18 PM CDT (10/20)
Length of Visible Light 12h 00m
Length of Day
11h 09m
Waning Gibbous, 59% of the Moon is Illuminated
Oct 20
Waning Gibbous
Oct 21
Last Quarter
Oct 27
New
Nov 4
First Quarter
Nov 12
Full

Hourly Weather History & Observations

Time (CDT) Temp. Dew Point Humidity Pressure Visibility Wind Dir Wind Speed Gust Speed Precip Events Conditions
12:53 AM 61.0 °F 57.9 °F 90% 29.82 in 6.0 mi WNW 3.5 mph - N/A   Overcast
1:20 AM 61.0 °F 57.9 °F 90% 29.83 in 10.0 mi Calm Calm - N/A   Overcast
1:53 AM 61.0 °F 59.0 °F 93% 29.83 in 10.0 mi Calm Calm - N/A   Overcast
2:53 AM 61.0 °F 59.0 °F 93% 29.83 in 10.0 mi SSE 3.5 mph - N/A   Overcast
3:39 AM 61.0 °F 57.9 °F 90% 29.84 in 10.0 mi South 3.5 mph - N/A   Overcast
3:53 AM 61.0 °F 57.9 °F 90% 29.83 in 10.0 mi SSW 3.5 mph - N/A   Overcast
4:19 AM 61.0 °F 57.9 °F 90% 29.85 in 8.0 mi SSW 3.5 mph - N/A   Overcast
4:53 AM 60.1 °F 57.9 °F 93% 29.85 in 6.0 mi Calm Calm - N/A   Overcast
5:53 AM 60.1 °F 57.9 °F 93% 29.87 in 4.0 mi Calm Calm - N/A   Overcast
6:53 AM 60.1 °F 59.0 °F 96% 29.88 in 6.0 mi Calm Calm - N/A   Overcast
7:01 AM 60.1 °F 57.9 °F 93% 29.89 in 6.0 mi South 3.5 mph - N/A   Overcast
7:53 AM 61.0 °F 59.0 °F 93% 29.91 in 5.0 mi Variable 3.5 mph - N/A   Overcast
8:41 AM 62.1 °F 59.0 °F 90% 29.93 in 10.0 mi West 4.6 mph - N/A   Overcast
8:53 AM 62.1 °F 59.0 °F 90% 29.93 in 10.0 mi West 5.8 mph - N/A   Overcast
9:02 AM 63.0 °F 59.0 °F 87% 29.94 in 10.0 mi Calm Calm - N/A   Overcast
9:19 AM 64.0 °F 57.9 °F 80% 29.94 in 10.0 mi Calm Calm - N/A   Overcast
9:53 AM 64.9 °F 57.0 °F 75% 29.93 in 10.0 mi Calm Calm - N/A   Overcast
10:36 AM 66.0 °F 57.0 °F 73% 29.95 in 10.0 mi Calm Calm - N/A   Overcast
10:53 AM 66.0 °F 57.0 °F 73% 29.94 in 10.0 mi Calm Calm - N/A   Overcast
11:53 AM 69.1 °F 57.0 °F 65% 29.94 in 10.0 mi SSW 6.9 mph - N/A   Overcast
12:53 PM 73.0 °F 55.9 °F 55% 29.92 in 10.0 mi SSW 6.9 mph - N/A   Clear
1:53 PM 75.0 °F 55.0 °F 50% 29.90 in 10.0 mi Calm Calm - N/A   Clear
2:53 PM 78.1 °F 55.0 °F 45% 29.88 in 10.0 mi SSW 5.8 mph - N/A   Clear
3:53 PM 78.1 °F 57.0 °F 48% 29.88 in 10.0 mi Variable 3.5 mph - N/A   Clear
4:53 PM 79.0 °F 57.9 °F 48% 29.87 in 10.0 mi SE 8.1 mph - N/A   Clear
5:53 PM 73.9 °F 59.0 °F 59% 29.87 in 10.0 mi SE 4.6 mph - N/A   Scattered Clouds
6:53 PM 70.0 °F 59.0 °F 68% 29.88 in 10.0 mi SSE 4.6 mph - N/A   Partly Cloudy
7:53 PM 66.0 °F 59.0 °F 78% 29.89 in 10.0 mi SE 4.6 mph - N/A   Clear
8:53 PM 64.9 °F 59.0 °F 81% 29.90 in 10.0 mi SE 3.5 mph - N/A   Scattered Clouds
9:53 PM 66.9 °F 60.1 °F 79% 29.91 in 10.0 mi East 4.6 mph - N/A   Overcast
10:53 PM 66.0 °F 59.0 °F 78% 29.91 in 10.0 mi SE 8.1 mph - N/A   Mostly Cloudy
11:53 PM 66.0 °F 59.0 °F 78% 29.89 in 10.0 mi ESE 6.9 mph - N/A   Overcast